Flag for Pakistan Weather past 2 weeks in Lahore, Pakistan

Now
81 °F

Partly cloudy.


Feels Like: 88 °F
Forecast: 78 / 86 °F
Wind: 10 mph from Southeast

Location: Lahore Airport

Current Time: Aug 1, 2015 at 7:37:35 PM

Latest Report: Aug 1, 2015 at 7:00 PM


Visibility: 2 mi

Pressure: 29.59 "Hg

Humidity: 94%

Dew point: 79 °F

Location of LahoreLocation

Historic Weather in Lahore — Graph

°F

Lahore temperature yesterday

Maximum temperature yesterday: 88 °F (at 1:55 PM)
Minimum temperature yesterday: 79 °F (at 4:55 AM)
Average temperature yesterday: 83 °F

Past Weeks' High & Low Weather Summary

 TemperatureHumidityPressure
High97 °F (Jul 19, 4:00 PM)100% (Jul 18, 8:03 AM)29.68 "Hg (Jul 18, 8:03 AM)
Low75 °F (Jul 18, 9:00 AM)53% (Jul 19, 4:00 PM)29.45 "Hg (Jul 17, 5:25 PM)
Average85 °F78%29.55 "Hg
* Reported Jul 17 5:25 PM — Aug 1 5:55 PM, Lahore, Weather by CustomWeather, © 2015

Note: Actual official high and low records may vary slightly from our data, if they occured in-between our weather recording intervals... More about our weather records

Advertising

Lahore weather history for previous 24 hours

 ConditionsComfort  
Time TempWeatherWind HumidityBarometerVisibility
5:55 PM
Sat, Aug 1
82 °FBroken clouds.7 mph84%29.56 "Hg2 mi
5:25 PM82 °FBroken clouds.10 mph89%29.56 "Hg2 mi
4:55 PM82 °FRain. Broken clouds.9 mph89%29.56 "Hg2 mi
4:25 PM86 °FBroken clouds.15 mph75%29.56 "Hg2 mi
3:55 PM86 °FBroken clouds.12 mph75%29.56 "Hg2 mi
3:25 PM86 °FBroken clouds.15 mph75%29.56 "Hg2 mi
2:55 PM86 °FRain. Broken clouds.14 mph75%29.56 "Hg2 mi
2:25 PM86 °FBroken clouds.15 mph75%29.56 "Hg2 mi
1:55 PM86 °FBroken clouds.16 mph75%29.56 "Hg2 mi
1:25 PM84 °FBroken clouds.17 mph84%29.59 "Hg2 mi
12:55 PM84 °FBroken clouds.14 mph84%29.59 "Hg2 mi
12:25 PM84 °FThunderstorms. Broken clouds.14 mph84%29.59 "Hg2 mi
11:55 AM84 °FThunderstorms. Broken clouds.14 mph84%29.59 "Hg2 mi
11:25 AM82 °FThunderstorms. Broken clouds.12 mph89%29.59 "Hg2 mi
10:55 AM82 °FThunderstorms. Broken clouds.12 mph89%29.59 "Hg2 mi
10:25 AM82 °FThunderstorms. Broken clouds.14 mph84%29.59 "Hg2 mi
9:55 AM82 °FThunderstorms. Broken clouds.12 mph84%29.59 "Hg2 mi
9:25 AM81 °FThundershowers. Broken clouds.12 mph89%29.56 "Hg2 mi
8:55 AM81 °FThunderstorms. Broken clouds.12 mph89%29.56 "Hg2 mi
8:25 AM81 °FThundershowers. Broken clouds.12 mph89%29.56 "Hg2 mi
8:00 AM81 °FBroken clouds.13 mph89%29.53 "Hg2 mi
7:30 AM81 °FBroken clouds.12 mph84%29.53 "Hg2 mi
7:00 AM81 °FBroken clouds.12 mph84%29.53 "Hg2 mi
6:30 AM79 °FBroken clouds.10 mph94%29.53 "Hg2 mi
6:00 AM79 °FBroken clouds.8 mph94%29.50 "Hg2 mi
5:30 AM79 °FScattered clouds.8 mph94%29.50 "Hg2 mi
5:00 AM79 °FPassing clouds.8 mph94%29.50 "Hg2 mi
4:30 AM79 °FPassing clouds.7 mph94%29.50 "Hg2 mi
4:00 AM79 °FPassing clouds.8 mph94%29.47 "Hg2 mi
3:30 AM81 °FPassing clouds.8 mph89%29.47 "Hg2 mi
3:00 AM81 °FPassing clouds.8 mph89%29.50 "Hg2 mi
2:30 AM81 °FPassing clouds.8 mph89%29.50 "Hg2 mi
2:00 AM81 °FPassing clouds.7 mph89%29.50 "Hg2 mi
1:30 AM81 °FPassing clouds.6 mph89%29.53 "Hg2 mi
1:00 AM81 °FPassing clouds.8 mph89%29.50 "Hg2 mi
12:30 AM81 °FPassing clouds.7 mph89%29.53 "Hg2 mi
12:00 AM81 °FPassing clouds.7 mph89%29.53 "Hg2 mi
11:30 PM
Fri, Jul 31
81 °FPassing clouds.7 mph89%29.53 "Hg2 mi
10:55 PM81 °FPassing clouds.9 mph89%29.53 "Hg2 mi
10:25 PM81 °FPassing clouds.8 mph89%29.53 "Hg2 mi
9:55 PM81 °FPassing clouds.6 mph89%29.53 "Hg2 mi
9:25 PM81 °FPassing clouds.5 mph89%29.53 "Hg2 mi
8:55 PM82 °FPassing clouds.5 mph84%29.50 "Hg2 mi
8:25 PM82 °FPassing clouds.6 mph84%29.50 "Hg2 mi
7:55 PM82 °FPassing clouds.7 mph84%29.47 "Hg2 mi
7:25 PM82 °FPassing clouds.7 mph84%29.47 "Hg3 mi
Weather by CustomWeather, © 2015

See weather overviewHow to use our weather pages